Regional Weather Roundup
Issued by NWS

Home | Current Version | Previous Version | Graphics & Text | Print | Product List | Glossary Off
Versions: 1 2 3 4 5 6 7 8 9 10 11 12 13 14 15 16 17 18 19 20 21 22 23 24 25 26 27 28 29 30 31 32 33 34 35 36 37 38 39 40 41 42 43 44 45 46 47 48 49 50

000
ASUS43 KTOP 182008
RWRKS

WEATHER ROUNDUP FOR KANSAS
NATIONAL WEATHER SERVICE GOODLAND KS
300 PM CDT FRI APR 18 2014

NOTE:  "FAIR" INDICATES FEW OR NO CLOUDS BELOW 12,000 FEET WITH NO
SIGNIFICANT WEATHER AND/OR OBSTRUCTIONS TO VISIBILITY.

KSZ001>006-013>018-027>032-041>047-182100-
NORTHWEST KANSAS

CITY           SKY/WX    TMP DP  RH WIND       PRES   REMARKS
GOODLAND       SUNNY     72  38  29 S29       29.97F
HAYS           MOSUNNY   70  45  40 S25G35    30.09F
HILL CITY      PTSUNNY   71  43  36 S23G32    30.05F
RUSSELL        SUNNY     71  42  35 S26G35    30.09F
$$

KSZ061>065-074>080-084>089-182100-
SOUTHWEST KANSAS

CITY           SKY/WX    TMP DP  RH WIND       PRES   REMARKS
DODGE CITY     SUNNY     67  43  41 S28G37    30.11F
ELKHART          N/A     71  41  33 S21         N/A
GARDEN CITY    SUNNY     66  44  45 S25G36    30.08F
GREAT BEND     SUNNY     70  45  40 S25G33    30.12F
LIBERAL        SUNNY     70  43  37 S20G30    30.10F
PRATT          SUNNY     64  43  45 S18G30    30.17F
$$

KSZ066>073-081>083-090>101-182100-
SOUTHEAST KANSAS

CITY           SKY/WX    TMP DP  RH WIND       PRES   REMARKS
CHANUTE        SUNNY     68  41  37 E8        30.23F
COFFEYVILLE    SUNNY     72  42  34 NE8       30.21F
HUTCHINSON     SUNNY     70  42  36 S21G26    30.17F
MEDICINE LODGE   N/A     68  44  42 S22G29    30.15F
NEWTON         MOSUNNY   68  43  40 S12G24    30.22F
PARSONS        SUNNY     71  40  32 VRB7      30.23F
WICHITA INTL   MOSUNNY   68  43  40 SE13      30.18F
WICHITA JABRA  SUNNY     69  44  40 S15       30.19F
WICHITA MCCONL SUNNY     70  43  37 S16       30.19F
WINFIELD       SUNNY     71  44  37 SE14G20   30.20F
$$

KSZ007>012-019>026-033>040-048>060-102>105-182100-
NORTHEAST KANSAS

CITY           SKY/WX    TMP DP  RH WIND       PRES   REMARKS
CONCORDIA      MOSUNNY   69  42  37 S23G33    30.13F
EMPORIA        SUNNY     67  41  38 SE16G23   30.20F
LAWRENCE       SUNNY     68  42  38 VRB7      30.23F
MANHATTAN      SUNNY     69  41  36 S13G24    30.18F
OLATHE IND     SUNNY     66  41  40 VRB3G16   30.24F
OLATHE EXE     SUNNY     64  42  44 S7        30.24F
SALINA         SUNNY     72  42  34 S22G28    30.16F
TOPEKA BILLARD SUNNY     69  41  36 E13G20    30.22F
TOPEKA FORBES  SUNNY     68  40  35 S12G22    30.22F
$$



USA.gov is the U.S. government's official web portal to all federal, state and local government web resources and services.